TimeCST,TemperatureF,Dew PointF,Humidity,Sea Level PressureIn,VisibilityMPH,Wind Direction,Wind SpeedMPH,Gust SpeedMPH,PrecipitationIn,Events,Conditions,WindDirDegrees,DateUTC
12:55 AM,30.6,16.7,56,30.10,10.0,SSW,6.9,-,N/A,,Clear,210,2012-12-12 06:55:00
1:55 AM,32.7,14.7,48,30.09,10.0,South,12.7,-,N/A,,Clear,190,2012-12-12 07:55:00
2:55 AM,33.6,13.8,44,30.10,10.0,South,10.4,-,N/A,,Clear,190,2012-12-12 08:55:00
3:55 AM,32.9,13.8,45,30.10,10.0,SSW,11.5,-,N/A,,Clear,210,2012-12-12 09:55:00
4:55 AM,32.9,14.4,47,30.09,10.0,SSW,13.8,-,N/A,,Clear,200,2012-12-12 10:55:00
5:55 AM,33.4,14.9,47,30.08,10.0,South,17.3,24.2,N/A,,Clear,190,2012-12-12 11:55:00
6:55 AM,33.6,15.4,47,30.10,10.0,South,19.6,-,N/A,,Clear,190,2012-12-12 12:55:00
7:55 AM,33.1,15.4,48,30.12,10.0,SSW,17.3,-,N/A,,Clear,200,2012-12-12 13:55:00
8:55 AM,36.7,14.7,41,30.16,10.0,SSW,15.0,23.0,N/A,,Clear,210,2012-12-12 14:55:00
9:55 AM,41.2,14.4,34,30.14,10.0,SSW,20.7,-,N/A,,Clear,200,2012-12-12 15:55:00
10:55 AM,45.7,14.5,29,30.14,10.0,SSW,20.7,26.5,N/A,,Clear,210,2012-12-12 16:55:00
11:55 AM,49.1,14.9,26,30.10,10.0,SSW,21.9,27.6,N/A,,Clear,200,2012-12-12 17:55:00
12:55 PM,52.2,14.2,22,30.08,10.0,South,21.9,29.9,0.01,,Clear,180,2012-12-12 18:55:00
1:55 PM,52.5,13.8,22,30.05,10.0,South,23.0,27.6,0.03,,Clear,180,2012-12-12 19:55:00
2:55 PM,53.1,13.8,21,30.04,10.0,South,23.0,28.8,N/A,,Clear,180,2012-12-12 20:55:00
3:55 PM,52.0,14.5,23,30.04,10.0,South,18.4,26.5,N/A,,Clear,180,2012-12-12 21:55:00
4:55 PM,49.5,14.4,25,30.04,10.0,South,13.8,-,N/A,,Clear,180,2012-12-12 22:55:00
5:55 PM,46.6,14.2,27,30.06,10.0,South,13.8,-,N/A,,Clear,180,2012-12-12 23:55:00
6:55 PM,44.4,14.2,30,30.05,10.0,South,16.1,-,N/A,,Clear,170,2012-12-13 00:55:00
7:55 PM,43.9,14.5,31,30.06,10.0,South,16.1,23.0,N/A,,Clear,170,2012-12-13 01:55:00
8:55 PM,42.8,14.0,31,30.07,10.0,South,15.0,25.3,N/A,,Clear,170,2012-12-13 02:55:00
9:55 PM,38.8,13.6,36,30.08,10.0,South,11.5,-,N/A,,Clear,170,2012-12-13 03:55:00
10:55 PM,38.5,13.8,37,30.07,10.0,South,11.5,-,N/A,,Clear,170,2012-12-13 04:55:00
11:55 PM,39.4,14.7,37,30.06,10.0,South,11.5,-,N/A,,Clear,180,2012-12-13 05:55:00